When you browse on this site, cookies collect data to enhance your experience and personalize the content and advertising you see.
Visit our Privacy Policy to learn more. By continuing to use the site, you agree to this use of cookies and data.
  • In Romania
  • List of Countries
  • For 7 days
  • Water Temperature
  • Weather Map
  • Weather Widgets
  • user-avatar
    Login

    Hourly Weather Omagh

    Today, 22 October, Tuesday

    Time Temperature Precipitation Wind Pressure Humidity
    00:00 +5°C° 0 mm 3 mps 758 mmHg 90%
    01:00 +5°C° 0 mm 3 mps 758 mmHg 91%
    02:00 +6°C° 0 mm 2 mps 758 mmHg 92%
    03:00 +7°C° 0 mm 2 mps 757 mmHg 92%
    04:00 +7°C° 0 mm 3 mps 757 mmHg 93%
    05:00 +7°C° 0 mm 3 mps 757 mmHg 93%
    06:00 +7°C° 0 mm 2 mps 757 mmHg 94%
    07:00 +7°C° 0 mm 3 mps 757 mmHg 92%
    08:00 +8°C° 0 mm 3 mps 757 mmHg 91%
    09:00 +8°C° 0 mm 3 mps 756 mmHg 89%
    10:00 +8°C° 0 mm 4 mps 756 mmHg 86%
    11:00 +10°C° 0 mm 4 mps 756 mmHg 84%
    12:00 +10°C° 0 mm 4 mps 756 mmHg 81%
    13:00 +11°C° 0 mm 4 mps 756 mmHg 81%
    14:00 +11°C° 0 mm 4 mps 755 mmHg 81%
    15:00 +11°C° 0 mm 4 mps 755 mmHg 80%
    16:00 +10°C° 0 mm 4 mps 755 mmHg 82%
    17:00 +10°C° 0 mm 4 mps 755 mmHg 83%
    18:00 +9°C° 0 mm 3 mps 754 mmHg 85%
    19:00 +9°C° 0 mm 3 mps 754 mmHg 86%
    20:00 +8°C° 0 mm 4 mps 754 mmHg 87%
    21:00 +8°C° 0 mm 4 mps 753 mmHg 88%
    22:00 +8°C° 0 mm 4 mps 753 mmHg 88%
    23:00 +8°C° 0 mm 4 mps 753 mmHg 87%

    Tomorrow, 23 October, Wednesday

    Time Temperature Precipitation Wind Pressure Humidity
    00:00 +8°C° 0 mm 4 mps 753 mmHg 86%
    01:00 +7°C° 0 mm 4 mps 752 mmHg 87%
    02:00 +7°C° 0 mm 4 mps 752 mmHg 87%
    03:00 +7°C° 0 mm 4 mps 751 mmHg 87%
    04:00 +7°C° 0 mm 4 mps 751 mmHg 86%
    05:00 +7°C° 0 mm 4 mps 750 mmHg 86%
    06:00 +7°C° 0 mm 5 mps 750 mmHg 85%
    07:00 +8°C° 0 mm 5 mps 749 mmHg 84%
    08:00 +8°C° 0 mm 5 mps 749 mmHg 83%
    09:00 +8°C° 0 mm 5 mps 748 mmHg 83%
    10:00 +9°C° 0 mm 6 mps 748 mmHg 81%
    11:00 +9°C° 0 mm 6 mps 747 mmHg 80%
    12:00 +10°C° 0 mm 6 mps 746 mmHg 79%
    13:00 +10°C° 0.5 mm 6 mps 745 mmHg 82%
    14:00 +9°C° 0.5 mm 6 mps 744 mmHg 86%
    15:00 +9°C° 0.5 mm 6 mps 743 mmHg 89%
    16:00 +9°C° 1 mm 6 mps 743 mmHg 91%
    17:00 +9°C° 1 mm 5 mps 743 mmHg 93%
    18:00 +9°C° 1 mm 5 mps 742 mmHg 95%
    19:00 +10°C° 0.1 mm 4 mps 742 mmHg 95%
    20:00 +10°C° 0.1 mm 4 mps 742 mmHg 96%
    21:00 +9°C° 0.1 mm 3 mps 742 mmHg 96%
    22:00 +9°C° 0 mm 3 mps 742 mmHg 96%
    23:00 +8°C° 0 mm 3 mps 742 mmHg 97%

    Day after tomorrow, 24 October, Thursday

    Time Temperature Precipitation Wind Pressure Humidity
    00:00 +7°C° 0 mm 2 mps 742 mmHg 97%
    01:00 +7°C° 0 mm 3 mps 741 mmHg 97%
    02:00 +8°C° 0 mm 3 mps 741 mmHg 97%
    03:00 +8°C° 0 mm 3 mps 741 mmHg 96%
    04:00 +8°C° 0 mm 3 mps 741 mmHg 95%
    05:00 +7°C° 0 mm 4 mps 740 mmHg 94%
    06:00 +7°C° 0 mm 4 mps 740 mmHg 93%
    07:00 +7°C° 0.1 mm 4 mps 741 mmHg 91%
    08:00 +7°C° 0.1 mm 4 mps 742 mmHg 89%
    09:00 +7°C° 0.1 mm 4 mps 742 mmHg 87%
    10:00 +7°C° 0.1 mm 5 mps 743 mmHg 82%
    11:00 +7°C° 0.1 mm 5 mps 744 mmHg 76%
    12:00 +7°C° 0.1 mm 6 mps 744 mmHg 71%
    13:00 +5°C° 0.1 mm 6 mps 745 mmHg 70%
    14:00 +6°C° 0.1 mm 5 mps 745 mmHg 69%
    15:00 +6°C° 0.1 mm 5 mps 745 mmHg 68%
    16:00 +5°C° 0 mm 4 mps 746 mmHg 73%
    17:00 +4°C° 0 mm 4 mps 747 mmHg 77%
    18:00 +3°C° 0 mm 3 mps 747 mmHg 81%
    19:00 +2°C° 0 mm 3 mps 748 mmHg 81%
    20:00 +2°C° 0 mm 3 mps 748 mmHg 81%
    21:00 +2°C° 0 mm 3 mps 749 mmHg 81%
    22:00 +1°C° 0 mm 3 mps 749 mmHg 82%
    23:00 +2°C° 0 mm 2 mps 750 mmHg 82%

    25 October, Friday

    Time Temperature Precipitation Wind Pressure Humidity
    00:00 +1°C° 0 mm 2 mps 750 mmHg 82%
    01:00 +1°C° 0 mm 2 mps 750 mmHg 82%
    02:00 +1°C° 0 mm 3 mps 750 mmHg 83%
    03:00 +1°C° 0 mm 3 mps 750 mmHg 83%
    04:00 0°C° 0 mm 3 mps 750 mmHg 85%
    05:00 +1°C° 0 mm 2 mps 750 mmHg 88%
    06:00 +1°C° 0 mm 2 mps 750 mmHg 90%
    07:00 +1°C° 0.4 mm 2 mps 750 mmHg 88%
    08:00 +1°C° 0.4 mm 3 mps 750 mmHg 85%
    09:00 +1°C° 0.4 mm 3 mps 750 mmHg 83%
    10:00 +2°C° 0.1 mm 3 mps 750 mmHg 83%
    11:00 +4°C° 0.1 mm 2 mps 749 mmHg 84%
    12:00 +4°C° 0.1 mm 2 mps 749 mmHg 84%
    13:00 +4°C° 0 mm 2 mps 748 mmHg 84%
    14:00 +4°C° 0 mm 2 mps 747 mmHg 85%
    15:00 +5°C° 0 mm 1 mps 746 mmHg 85%
    16:00 +4°C° 0 mm 1 mps 746 mmHg 88%
    17:00 +3°C° 0 mm 2 mps 746 mmHg 91%
    18:00 +2°C° 0 mm 2 mps 745 mmHg 94%
    19:00 +1°C° 0 mm 2 mps 745 mmHg 93%
    20:00 +1°C° 0 mm 2 mps 746 mmHg 93%
    21:00 +1°C° 0 mm 2 mps 746 mmHg 92%
    22:00 0°C° 0 mm 3 mps 746 mmHg 91%
    23:00 +1°C° 0 mm 3 mps 747 mmHg 89%

    26 October, Saturday

    Time Temperature Precipitation Wind Pressure Humidity
    00:00 +1°C° 0 mm 3 mps 747 mmHg 87%
    01:00 0°C° 0.1 mm 4 mps 747 mmHg 87%
    02:00 0°C° 0.1 mm 4 mps 748 mmHg 86%
    03:00 +1°C° 0.1 mm 4 mps 748 mmHg 85%
    04:00 0°C° 0 mm 4 mps 748 mmHg 84%
    05:00 0°C° 0 mm 4 mps 749 mmHg 84%
    06:00 0°C° 0 mm 4 mps 749 mmHg 83%
    07:00 +1°C° 0 mm 5 mps 749 mmHg 82%
    08:00 +2°C° 0 mm 5 mps 749 mmHg 82%
    09:00 +3°C° 0 mm 6 mps 750 mmHg 81%
    10:00 +4°C° 0.1 mm 6 mps 750 mmHg 79%
    11:00 +5°C° 0.1 mm 7 mps 751 mmHg 77%
    12:00 +6°C° 0.1 mm 7 mps 752 mmHg 76%
    13:00 +5°C° 0.1 mm 7 mps 752 mmHg 76%
    14:00 +5°C° 0.1 mm 7 mps 753 mmHg 77%
    15:00 +5°C° 0.1 mm 6 mps 753 mmHg 77%
    16:00 +4°C° 0 mm 6 mps 754 mmHg 80%
    17:00 +3°C° 0 mm 5 mps 754 mmHg 82%
    18:00 +4°C° 0 mm 4 mps 755 mmHg 84%
    19:00 +4°C° 0 mm 4 mps 755 mmHg 85%
    20:00 +4°C° 0 mm 4 mps 756 mmHg 86%
    21:00 +3°C° 0 mm 3 mps 757 mmHg 87%
    22:00 +3°C° 0 mm 3 mps 757 mmHg 88%
    23:00 +3°C° 0 mm 3 mps 758 mmHg 88%

    27 October, Sunday

    Time Temperature Precipitation Wind Pressure Humidity
    00:00 +4°C° 0 mm 2 mps 758 mmHg 89%
    01:00 +4°C° 0 mm 2 mps 758 mmHg 91%
    02:00 +4°C° 0 mm 2 mps 759 mmHg 92%
    03:00 +4°C° 0 mm 2 mps 759 mmHg 93%
    04:00 +3°C° 0 mm 2 mps 759 mmHg 93%
    05:00 +4°C° 0 mm 1 mps 759 mmHg 94%
    06:00 +4°C° 0 mm 1 mps 759 mmHg 94%
    07:00 +4°C° 0 mm 1 mps 759 mmHg 92%
    08:00 +5°C° 0 mm 1 mps 759 mmHg 91%
    09:00 +5°C° 0 mm 1 mps 760 mmHg 89%
    10:00 +7°C° 0 mm 1 mps 760 mmHg 84%
    11:00 +7°C° 0 mm 0 mps 760 mmHg 79%
    12:00 +8°C° 0 mm 0 mps 760 mmHg 75%
    13:00 +8°C° 0.1 mm 0 mps 760 mmHg 75%
    14:00 +8°C° 0.1 mm 0 mps 759 mmHg 75%
    15:00 +8°C° 0.1 mm 0 mps 759 mmHg 75%
    16:00 +8°C° 0 mm 1 mps 759 mmHg 80%
    17:00 +7°C° 0 mm 1 mps 759 mmHg 85%
    18:00 +5°C° 0 mm 2 mps 759 mmHg 91%
    19:00 +4°C° 0 mm 2 mps 759 mmHg 91%
    20:00 +4°C° 0 mm 2 mps 759 mmHg 91%
    21:00 +3°C° 0 mm 2 mps 759 mmHg 91%
    22:00 +3°C° 0 mm 2 mps 758 mmHg 90%
    23:00 +3°C° 0 mm 2 mps 758 mmHg 89%

    28 October, Monday

    Time Temperature Precipitation Wind Pressure Humidity
    00:00 +3°C° 0 mm 2 mps 757 mmHg 89%
    01:00 +3°C° 0 mm 3 mps 757 mmHg 89%
    02:00 +3°C° 0 mm 3 mps 756 mmHg 89%
    03:00 +4°C° 0 mm 3 mps 756 mmHg 89%
    04:00 +4°C° 0 mm 4 mps 755 mmHg 89%
    05:00 +3°C° 0 mm 5 mps 755 mmHg 89%
    06:00 +5°C° 0 mm 5 mps 754 mmHg 89%
    07:00 +4°C° 0.1 mm 6 mps 754 mmHg 89%
    08:00 +4°C° 0.1 mm 6 mps 754 mmHg 88%
    09:00 +5°C° 0.1 mm 7 mps 753 mmHg 88%
    10:00 +5°C° 0.8 mm 7 mps 753 mmHg 90%
    11:00 +5°C° 0.8 mm 7 mps 753 mmHg 91%
    12:00 +5°C° 0.8 mm 8 mps 752 mmHg 92%
    13:00 +5°C° 1 mm 8 mps 752 mmHg 93%
    14:00 +5°C° 1 mm 8 mps 751 mmHg 93%
    15:00 +5°C° 1 mm 9 mps 751 mmHg 93%
    16:00 +5°C° 1.3 mm 8 mps 750 mmHg 93%
    17:00 +6°C° 1.3 mm 8 mps 749 mmHg 94%
    18:00 +6°C° 1.3 mm 8 mps 749 mmHg 94%
    19:00 +6°C° 0.7 mm 8 mps 749 mmHg 94%
    20:00 +7°C° 0.7 mm 8 mps 748 mmHg 94%
    21:00 +7°C° 0.7 mm 8 mps 748 mmHg 94%
    22:00 +7°C° 0.7 mm 8 mps 748 mmHg 94%
    23:00 +7°C° 0.7 mm 8 mps 747 mmHg 94%
    Show more